Time,TemperatureF,DewpointF,PressureIn,WindDirection,WindDirectionDegrees,WindSpeedMPH,WindSpeedGustMPH,Humidity,HourlyPrecipIn,Conditions,Clouds,dailyrainin,SoftwareType,DateUTC
2013-04-27 00:04:00,59.6,30.5,25.14,NW,306,0.0,-999.0,33,-99.99,,,-99.99,dwt +perl,2013-04-27 07:04:00,
2013-04-27 00:09:00,59.6,31.2,25.14,NW,306,0.0,-999.0,34,-99.99,,,-99.99,dwt +perl,2013-04-27 07:09:00,
2013-04-27 00:10:00,59.8,31.4,25.14,NW,306,0.0,-999.0,34,-99.99,,,-99.99,dwt +perl,2013-04-27 07:10:00,
2013-04-27 00:14:00,59.6,31.2,25.14,NW,306,0.0,-999.0,34,-99.99,,,-99.99,dwt +perl,2013-04-27 07:14:00,
2013-04-27 00:19:00,59.8,31.4,25.14,NW,306,0.0,-999.0,34,-99.99,,,-99.99,dwt +perl,2013-04-27 07:19:00,
2013-04-27 00:29:00,59.8,31.4,25.14,NW,306,0.0,-999.0,34,-99.99,,,-99.99,dwt +perl,2013-04-27 07:29:00,
2013-04-27 00:34:00,59.9,31.5,25.15,NW,306,0.0,-999.0,34,-99.99,,,-99.99,dwt +perl,2013-04-27 07:34:00,
2013-04-27 00:39:00,59.9,30.7,25.14,NW,306,0.0,-999.0,33,-99.99,,,-99.99,dwt +perl,2013-04-27 07:39:00,
2013-04-27 00:44:00,60.0,30.1,25.14,NW,306,0.0,-999.0,32,-99.99,,,-99.99,dwt +perl,2013-04-27 07:44:00,
2013-04-27 00:49:00,60.1,30.1,25.14,NW,306,0.0,-999.0,32,-99.99,,,-99.99,dwt +perl,2013-04-27 07:49:00,
2013-04-27 00:54:00,60.0,30.1,25.14,NW,306,0.0,-999.0,32,-99.99,,,-99.99,dwt +perl,2013-04-27 07:54:00,
2013-04-27 00:59:00,60.1,30.1,25.14,NW,306,2.0,-999.0,32,-99.99,,,-99.99,dwt +perl,2013-04-27 07:59:00,
2013-04-27 01:04:00,60.2,29.5,25.14,NW,306,3.0,-999.0,31,-99.99,,,-99.99,dwt +perl,2013-04-27 08:04:00,
2013-04-27 01:09:00,60.4,29.6,25.14,NW,306,3.0,-999.0,31,-99.99,,,-99.99,dwt +perl,2013-04-27 08:09:00,
2013-04-27 01:14:00,60.4,30.4,25.14,NW,306,2.0,-999.0,32,-99.99,,,-99.99,dwt +perl,2013-04-27 08:14:00,
2013-04-27 01:19:00,60.4,30.4,25.14,NW,306,2.0,-999.0,32,-99.99,,,-99.99,dwt +perl,2013-04-27 08:19:00,
2013-04-27 01:24:00,60.3,30.3,25.14,NW,306,2.0,-999.0,32,-99.99,,,-99.99,dwt +perl,2013-04-27 08:24:00,
2013-04-27 01:29:00,60.3,30.3,25.14,NW,306,3.0,-999.0,32,-99.99,,,-99.99,dwt +perl,2013-04-27 08:29:00,
2013-04-27 01:34:00,60.2,30.2,25.14,NW,306,4.0,-999.0,32,-99.99,,,-99.99,dwt +perl,2013-04-27 08:34:00,
2013-04-27 01:39:00,60.2,30.2,25.14,NW,306,2.0,-999.0,32,-99.99,,,-99.99,dwt +perl,2013-04-27 08:39:00,
2013-04-27 01:44:00,60.3,30.3,25.14,NW,306,2.0,-999.0,32,-99.99,,,-99.99,dwt +perl,2013-04-27 08:44:00,
2013-04-27 01:49:00,60.3,30.3,25.14,NW,306,2.0,-999.0,32,-99.99,,,-99.99,dwt +perl,2013-04-27 08:49:00,
2013-04-27 01:54:00,60.1,29.4,25.14,NW,306,0.0,-999.0,31,-99.99,,,-99.99,dwt +perl,2013-04-27 08:54:00,
2013-04-27 01:59:00,60.2,30.2,25.14,NW,306,0.0,-999.0,32,-99.99,,,-99.99,dwt +perl,2013-04-27 08:59:00,
2013-04-27 02:04:00,60.1,30.1,25.14,NW,306,0.0,-999.0,32,-99.99,,,-99.99,dwt +perl,2013-04-27 09:04:00,
2013-04-27 02:09:00,60.0,30.1,25.13,NW,307,0.0,-999.0,32,-99.99,,,-99.99,dwt +perl,2013-04-27 09:09:00,
2013-04-27 02:14:00,59.9,29.2,25.13,NW,306,1.0,-999.0,31,-99.99,,,-99.99,dwt +perl,2013-04-27 09:14:00,
2013-04-27 02:19:00,59.9,29.2,25.13,NW,306,2.0,-999.0,31,-99.99,,,-99.99,dwt +perl,2013-04-27 09:19:00,
2013-04-27 02:24:00,60.1,29.4,25.13,NW,306,2.0,-999.0,31,-99.99,,,-99.99,dwt +perl,2013-04-27 09:24:00,
2013-04-27 02:29:00,60.1,28.6,25.13,NW,308,3.0,-999.0,30,-99.99,,,-99.99,dwt +perl,2013-04-27 09:29:00,
2013-04-27 02:34:00,60.1,29.4,25.13,NW,308,2.0,-999.0,31,-99.99,,,-99.99,dwt +perl,2013-04-27 09:34:00,
2013-04-27 02:39:00,60.1,30.1,25.13,NW,308,2.0,-999.0,32,-99.99,,,-99.99,dwt +perl,2013-04-27 09:39:00,
2013-04-27 02:44:00,60.1,30.9,25.13,NW,308,1.0,-999.0,33,-99.99,,,-99.99,dwt +perl,2013-04-27 09:44:00,
2013-04-27 02:49:00,60.0,29.3,25.13,NW,308,2.0,-999.0,31,-99.99,,,-99.99,dwt +perl,2013-04-27 09:49:00,
2013-04-27 02:54:00,59.9,30.7,25.13,NW,308,1.0,-999.0,33,-99.99,,,-99.99,dwt +perl,2013-04-27 09:54:00,
2013-04-27 02:59:00,60.0,30.8,25.12,NW,308,1.0,-999.0,33,-99.99,,,-99.99,dwt +perl,2013-04-27 09:59:00,
2013-04-27 03:04:00,60.0,31.5,25.13,NW,308,0.0,-999.0,34,-99.99,,,-99.99,dwt +perl,2013-04-27 10:04:00,
2013-04-27 03:09:00,60.0,30.8,25.13,NW,308,1.0,-999.0,33,-99.99,,,-99.99,dwt +perl,2013-04-27 10:09:00,
2013-04-27 03:14:00,59.9,30.7,25.13,NW,308,0.0,-999.0,33,-99.99,,,-99.99,dwt +perl,2013-04-27 10:14:00,
2013-04-27 03:19:00,60.0,30.8,25.13,NW,308,0.0,-999.0,33,-99.99,,,-99.99,dwt +perl,2013-04-27 10:19:00,
2013-04-27 03:24:00,60.0,30.1,25.13,NW,308,0.0,-999.0,32,-99.99,,,-99.99,dwt +perl,2013-04-27 10:24:00,
2013-04-27 03:29:00,60.0,29.3,25.12,NW,308,0.0,-999.0,31,-99.99,,,-99.99,dwt +perl,2013-04-27 10:29:00,
2013-04-27 03:34:00,60.1,29.4,25.12,NW,308,0.0,-999.0,31,-99.99,,,-99.99,dwt +perl,2013-04-27 10:34:00,
2013-04-27 03:39:00,60.1,28.6,25.12,NW,308,2.0,-999.0,30,-99.99,,,-99.99,dwt +perl,2013-04-27 10:39:00,
2013-04-27 03:44:00,59.9,27.6,25.12,NW,308,0.0,-999.0,29,-99.99,,,-99.99,dwt +perl,2013-04-27 10:44:00,
2013-04-27 03:49:00,59.7,27.4,25.12,NW,308,1.0,-999.0,29,-99.99,,,-99.99,dwt +perl,2013-04-27 10:49:00,
2013-04-27 03:54:00,59.6,27.3,25.12,NW,308,2.0,-999.0,29,-99.99,,,-99.99,dwt +perl,2013-04-27 10:54:00,
2013-04-27 03:59:00,59.6,27.3,25.12,NW,308,2.0,-999.0,29,-99.99,,,-99.99,dwt +perl,2013-04-27 10:59:00,
2013-04-27 04:04:00,59.7,27.4,25.12,NW,308,2.0,-999.0,29,-99.99,,,-99.99,dwt +perl,2013-04-27 11:04:00,
2013-04-27 04:09:00,59.7,27.4,25.12,NW,308,2.0,-999.0,29,-99.99,,,-99.99,dwt +perl,2013-04-27 11:09:00,
2013-04-27 04:14:00,59.7,27.4,25.12,NW,308,2.0,-999.0,29,-99.99,,,-99.99,dwt +perl,2013-04-27 11:14:00,
2013-04-27 04:19:00,59.8,26.6,25.12,NW,308,3.0,-999.0,28,-99.99,,,-99.99,dwt +perl,2013-04-27 11:19:00,
2013-04-27 04:24:00,59.8,26.6,25.12,NW,314,3.0,-999.0,28,-99.99,,,-99.99,dwt +perl,2013-04-27 11:24:00,
2013-04-27 04:29:00,59.8,26.6,25.12,NNW,345,3.0,-999.0,28,-99.99,,,-99.99,dwt +perl,2013-04-27 11:29:00,
2013-04-27 04:34:00,59.8,26.6,25.12,North,359,3.0,-999.0,28,-99.99,,,-99.99,dwt +perl,2013-04-27 11:34:00,
2013-04-27 04:39:00,59.8,26.6,25.12,North,4,4.0,-999.0,28,-99.99,,,-99.99,dwt +perl,2013-04-27 11:39:00,
2013-04-27 04:44:00,59.8,26.6,25.12,North,4,3.0,-999.0,28,-99.99,,,-99.99,dwt +perl,2013-04-27 11:44:00,
2013-04-27 04:49:00,59.8,26.6,25.12,North,8,3.0,-999.0,28,-99.99,,,-99.99,dwt +perl,2013-04-27 11:49:00,
2013-04-27 04:54:00,59.7,26.5,25.12,North,8,1.0,-999.0,28,-99.99,,,-99.99,dwt +perl,2013-04-27 11:54:00,
2013-04-27 04:59:00,59.6,26.5,25.12,North,8,1.0,-999.0,28,-99.99,,,-99.99,dwt +perl,2013-04-27 11:59:00,
2013-04-27 05:04:00,59.5,26.4,25.12,North,8,0.0,-999.0,28,-99.99,,,-99.99,dwt +perl,2013-04-27 12:04:00,
2013-04-27 05:09:00,60.0,25.9,25.12,North,8,3.0,-999.0,27,-99.99,,,-99.99,dwt +perl,2013-04-27 12:09:00,
2013-04-27 05:14:00,60.3,26.2,25.12,North,8,3.0,-999.0,27,-99.99,,,-99.99,dwt +perl,2013-04-27 12:14:00,
2013-04-27 05:19:00,60.9,23.9,25.12,North,9,4.0,-999.0,24,-99.99,,,-99.99,dwt +perl,2013-04-27 12:19:00,
2013-04-27 05:24:00,60.9,23.9,25.12,North,10,1.0,-999.0,24,-99.99,,,-99.99,dwt +perl,2013-04-27 12:24:00,
2013-04-27 05:29:00,60.6,25.5,25.12,North,10,4.0,-999.0,26,-99.99,,,-99.99,dwt +perl,2013-04-27 12:29:00,
2013-04-27 05:34:00,60.7,24.7,25.12,North,10,1.0,-999.0,25,-99.99,,,-99.99,dwt +perl,2013-04-27 12:34:00,
2013-04-27 05:39:00,60.6,23.6,25.12,North,10,2.0,-999.0,24,-99.99,,,-99.99,dwt +perl,2013-04-27 12:39:00,
2013-04-27 05:44:00,60.5,23.5,25.12,North,10,0.0,-999.0,24,-99.99,,,-99.99,dwt +perl,2013-04-27 12:44:00,
2013-04-27 05:49:00,60.6,22.6,25.12,North,10,1.0,-999.0,23,-99.99,,,-99.99,dwt +perl,2013-04-27 12:49:00,
2013-04-27 05:54:00,60.5,22.5,25.12,North,10,0.0,-999.0,23,-99.99,,,-99.99,dwt +perl,2013-04-27 12:54:00,
2013-04-27 05:59:00,60.2,22.3,25.12,North,10,1.0,-999.0,23,-99.99,,,-99.99,dwt +perl,2013-04-27 12:59:00,
2013-04-27 06:04:00,60.1,22.2,25.12,North,10,1.0,-999.0,23,-99.99,,,-99.99,dwt +perl,2013-04-27 13:04:00,
2013-04-27 06:09:00,60.0,23.1,25.12,North,10,0.0,-999.0,24,-99.99,,,-99.99,dwt +perl,2013-04-27 13:09:00,
2013-04-27 06:14:00,60.0,24.1,25.12,North,10,3.0,-999.0,25,-99.99,,,-99.99,dwt +perl,2013-04-27 13:14:00,
2013-04-27 06:19:00,60.1,23.2,25.12,North,10,4.0,-999.0,24,-99.99,,,-99.99,dwt +perl,2013-04-27 13:19:00,
2013-04-27 06:24:00,60.4,23.5,25.12,North,10,3.0,-999.0,24,-99.99,,,-99.99,dwt +perl,2013-04-27 13:24:00,
2013-04-27 06:29:00,60.5,23.5,25.12,North,10,0.0,-999.0,24,-99.99,,,-99.99,dwt +perl,2013-04-27 13:29:00,
2013-04-27 06:34:00,60.6,23.6,25.12,NNE,14,3.0,-999.0,24,-99.99,,,-99.99,dwt +perl,2013-04-27 13:34:00,
2013-04-27 06:39:00,60.7,23.7,25.12,NNE,14,1.0,-999.0,24,-99.99,,,-99.99,dwt +perl,2013-04-27 13:39:00,
2013-04-27 06:44:00,60.9,23.9,25.12,NNE,15,2.0,-999.0,24,-99.99,,,-99.99,dwt +perl,2013-04-27 13:44:00,
2013-04-27 06:49:00,61.2,24.1,25.13,NNE,19,3.0,-999.0,24,-99.99,,,-99.99,dwt +perl,2013-04-27 13:49:00,
2013-04-27 06:54:00,61.5,24.4,25.13,NNE,25,4.0,-999.0,24,-99.99,,,-99.99,dwt +perl,2013-04-27 13:54:00,
2013-04-27 06:59:00,61.8,23.6,25.13,NNE,26,3.0,-999.0,23,-99.99,,,-99.99,dwt +perl,2013-04-27 13:59:00,
2013-04-27 07:04:00,62.1,24.9,25.13,NNE,26,4.0,-999.0,24,-99.99,,,-99.99,dwt +perl,2013-04-27 14:04:00,
2013-04-27 07:09:00,62.5,24.2,25.13,NNE,28,3.0,-999.0,23,-99.99,,,-99.99,dwt +perl,2013-04-27 14:09:00,
2013-04-27 07:14:00,62.7,25.4,25.13,NNE,29,4.0,-999.0,24,-99.99,,,-99.99,dwt +perl,2013-04-27 14:14:00,
2013-04-27 07:19:00,63.1,25.7,25.13,NNE,33,4.0,-999.0,24,-99.99,,,-99.99,dwt +perl,2013-04-27 14:19:00,
2013-04-27 07:24:00,63.4,25.0,25.13,NNE,33,2.0,-999.0,23,-99.99,,,-99.99,dwt +perl,2013-04-27 14:24:00,
2013-04-27 07:29:00,63.6,25.1,25.13,NNE,33,3.0,-999.0,23,-99.99,,,-99.99,dwt +perl,2013-04-27 14:29:00,
2013-04-27 07:34:00,63.8,25.3,25.13,NNE,33,1.0,-999.0,23,-99.99,,,-99.99,dwt +perl,2013-04-27 14:34:00,
2013-04-27 07:39:00,64.0,25.5,25.13,NE,35,3.0,-999.0,23,-99.99,,,-99.99,dwt +perl,2013-04-27 14:39:00,
2013-04-27 07:44:00,64.1,25.5,25.13,NE,37,3.0,-999.0,23,-99.99,,,-99.99,dwt +perl,2013-04-27 14:44:00,
2013-04-27 07:49:00,64.3,25.7,25.14,NE,37,5.0,-999.0,23,-99.99,,,-99.99,dwt +perl,2013-04-27 14:49:00,
2013-04-27 07:54:00,64.5,23.7,25.14,NE,39,5.0,-999.0,21,-99.99,,,-99.99,dwt +perl,2013-04-27 14:54:00,
2013-04-27 07:59:00,64.7,25.0,25.14,NE,38,4.0,-999.0,22,-99.99,,,-99.99,dwt +perl,2013-04-27 14:59:00,
2013-04-27 08:04:00,64.9,26.2,25.14,NE,35,4.0,-999.0,23,-99.99,,,-99.99,dwt +perl,2013-04-27 15:04:00,
2013-04-27 08:09:00,65.4,26.6,25.14,ENE,58,3.0,-999.0,23,-99.99,,,-99.99,dwt +perl,2013-04-27 15:09:00,
2013-04-27 08:14:00,65.7,25.8,25.14,NE,50,5.0,-999.0,22,-99.99,,,-99.99,dwt +perl,2013-04-27 15:14:00,
2013-04-27 08:19:00,65.9,26.0,25.14,NE,43,4.0,-999.0,22,-99.99,,,-99.99,dwt +perl,2013-04-27 15:19:00,
2013-04-27 08:24:00,66.0,26.1,25.14,NE,46,4.0,-999.0,22,-99.99,,,-99.99,dwt +perl,2013-04-27 15:24:00,
2013-04-27 08:29:00,66.2,24.0,25.14,ENE,61,5.0,-999.0,20,-99.99,,,-99.99,dwt +perl,2013-04-27 15:29:00,
2013-04-27 08:34:00,66.4,26.4,25.14,NE,40,4.0,-999.0,22,-99.99,,,-99.99,dwt +perl,2013-04-27 15:34:00,
2013-04-27 08:39:00,66.4,24.1,25.14,NE,43,5.0,-999.0,20,-99.99,,,-99.99,dwt +perl,2013-04-27 15:39:00,
2013-04-27 08:44:00,66.7,26.6,25.14,NE,47,3.0,-999.0,22,-99.99,,,-99.99,dwt +perl,2013-04-27 15:44:00,
2013-04-27 08:49:00,66.9,25.7,25.14,NE,45,3.0,-999.0,21,-99.99,,,-99.99,dwt +perl,2013-04-27 15:49:00,
2013-04-27 08:54:00,67.0,25.8,25.14,NE,42,5.0,-999.0,21,-99.99,,,-99.99,dwt +perl,2013-04-27 15:54:00,
2013-04-27 08:59:00,67.1,28.1,25.14,NE,46,4.0,-999.0,23,-99.99,,,-99.99,dwt +perl,2013-04-27 15:59:00,
2013-04-27 09:04:00,67.2,25.9,25.14,NE,48,3.0,-999.0,21,-99.99,,,-99.99,dwt +perl,2013-04-27 16:04:00,
2013-04-27 09:09:00,67.4,27.2,25.14,NNE,30,9.0,-999.0,22,-99.99,,,-99.99,dwt +perl,2013-04-27 16:09:00,
2013-04-27 09:14:00,67.7,28.6,25.14,NE,40,2.0,-999.0,23,-99.99,,,-99.99,dwt +perl,2013-04-27 16:14:00,
2013-04-27 09:19:00,67.9,27.6,25.14,ENE,58,3.0,-999.0,22,-99.99,,,-99.99,dwt +perl,2013-04-27 16:19:00,
2013-04-27 09:24:00,68.1,27.8,25.14,NE,52,2.0,-999.0,22,-99.99,,,-99.99,dwt +perl,2013-04-27 16:24:00,
2013-04-27 09:29:00,68.3,28.0,25.14,NE,41,5.0,-999.0,22,-99.99,,,-99.99,dwt +perl,2013-04-27 16:29:00,
2013-04-27 09:34:00,68.1,27.8,25.14,NE,56,2.0,-999.0,22,-99.99,,,-99.99,dwt +perl,2013-04-27 16:34:00,
2013-04-27 09:39:00,68.2,29.0,25.14,NE,47,3.0,-999.0,23,-99.99,,,-99.99,dwt +perl,2013-04-27 16:39:00,
2013-04-27 09:44:00,68.6,32.3,25.14,NE,42,2.0,-999.0,26,-99.99,,,-99.99,dwt +perl,2013-04-27 16:44:00,
2013-04-27 09:49:00,68.7,29.4,25.14,NE,41,4.0,-999.0,23,-99.99,,,-99.99,dwt +perl,2013-04-27 16:49:00,
2013-04-27 09:54:00,68.7,29.4,25.14,NE,54,3.0,-999.0,23,-99.99,,,-99.99,dwt +perl,2013-04-27 16:54:00,
2013-04-27 09:59:00,68.9,30.6,25.14,NE,46,5.0,-999.0,24,-99.99,,,-99.99,dwt +perl,2013-04-27 16:59:00,
2013-04-27 10:04:00,68.9,30.6,25.14,NE,41,1.0,-999.0,24,-99.99,,,-99.99,dwt +perl,2013-04-27 17:04:00,
2013-04-27 10:09:00,69.2,32.8,25.14,NE,40,2.0,-999.0,26,-99.99,,,-99.99,dwt +perl,2013-04-27 17:09:00,
2013-04-27 10:14:00,69.8,37.0,25.14,NE,40,2.0,-999.0,30,-99.99,,,-99.99,dwt +perl,2013-04-27 17:14:00,
2013-04-27 10:19:00,70.0,35.4,25.14,NE,41,1.0,-999.0,28,-99.99,,,-99.99,dwt +perl,2013-04-27 17:19:00,
2013-04-27 10:24:00,69.6,35.0,25.14,NE,42,0.0,-999.0,28,-99.99,,,-99.99,dwt +perl,2013-04-27 17:24:00,
2013-04-27 10:29:00,69.2,32.8,25.14,NE,46,7.0,-999.0,26,-99.99,,,-99.99,dwt +perl,2013-04-27 17:29:00,
2013-04-27 10:34:00,69.4,34.0,25.14,NE,44,0.0,-999.0,27,-99.99,,,-99.99,dwt +perl,2013-04-27 17:34:00,
2013-04-27 10:39:00,69.6,37.6,25.14,NE,50,0.0,-999.0,31,-99.99,,,-99.99,dwt +perl,2013-04-27 17:39:00,
2013-04-27 10:44:00,69.7,36.9,25.14,NE,41,2.0,-999.0,30,-99.99,,,-99.99,dwt +perl,2013-04-27 17:44:00,
2013-04-27 10:49:00,70.2,34.6,25.14,NE,41,3.0,-999.0,27,-99.99,,,-99.99,dwt +perl,2013-04-27 17:49:00,
2013-04-27 10:54:00,70.2,33.7,25.14,NE,40,3.0,-999.0,26,-99.99,,,-99.99,dwt +perl,2013-04-27 17:54:00,
2013-04-27 10:59:00,69.9,33.4,25.14,NE,43,1.0,-999.0,26,-99.99,,,-99.99,dwt +perl,2013-04-27 17:59:00,
2013-04-27 11:04:00,69.9,33.4,25.14,NE,43,0.0,-999.0,26,-99.99,,,-99.99,dwt +perl,2013-04-27 18:04:00,
2013-04-27 11:09:00,69.7,32.3,25.14,NE,38,2.0,-999.0,25,-99.99,,,-99.99,dwt +perl,2013-04-27 18:09:00,
2013-04-27 11:14:00,69.4,31.0,25.15,NE,45,1.0,-999.0,24,-99.99,,,-99.99,dwt +perl,2013-04-27 18:14:00,
2013-04-27 11:19:00,69.5,32.1,25.15,NE,40,5.0,-999.0,25,-99.99,,,-99.99,dwt +perl,2013-04-27 18:19:00,
2013-04-27 11:24:00,69.7,33.3,25.14,NE,41,4.0,-999.0,26,-99.99,,,-99.99,dwt +perl,2013-04-27 18:24:00,
2013-04-27 11:29:00,69.8,32.4,25.14,NE,48,2.0,-999.0,25,-99.99,,,-99.99,dwt +perl,2013-04-27 18:29:00,
2013-04-27 11:34:00,70.2,34.6,25.14,NE,44,1.0,-999.0,27,-99.99,,,-99.99,dwt +perl,2013-04-27 18:34:00,
2013-04-27 11:39:00,70.7,35.1,25.14,NE,44,1.0,-999.0,27,-99.99,,,-99.99,dwt +perl,2013-04-27 18:39:00,
2013-04-27 11:44:00,71.3,34.6,25.15,NE,44,1.0,-999.0,26,-99.99,,,-99.99,dwt +perl,2013-04-27 18:44:00,
2013-04-27 11:49:00,71.6,33.9,25.14,NE,44,6.0,-999.0,25,-99.99,,,-99.99,dwt +perl,2013-04-27 18:49:00,
2013-04-27 11:54:00,71.5,33.8,25.14,NE,43,4.0,-999.0,25,-99.99,,,-99.99,dwt +perl,2013-04-27 18:54:00,
2013-04-27 11:59:00,71.5,33.8,25.14,NE,42,0.0,-999.0,25,-99.99,,,-99.99,dwt +perl,2013-04-27 18:59:00,
2013-04-27 12:04:00,72.2,35.4,25.14,NE,41,0.0,-999.0,26,-99.99,,,-99.99,dwt +perl,2013-04-27 19:04:00,
2013-04-27 12:09:00,72.5,33.6,25.14,NE,42,2.0,-999.0,24,-99.99,,,-99.99,dwt +perl,2013-04-27 19:09:00,
2013-04-27 12:14:00,72.6,33.7,25.14,NE,46,1.0,-999.0,24,-99.99,,,-99.99,dwt +perl,2013-04-27 19:14:00,
2013-04-27 12:19:00,72.8,32.8,25.14,ENE,65,1.0,-999.0,23,-99.99,,,-99.99,dwt +perl,2013-04-27 19:19:00,
2013-04-27 12:24:00,73.1,32.0,25.14,NE,52,5.0,-999.0,22,-99.99,,,-99.99,dwt +perl,2013-04-27 19:24:00,
2013-04-27 12:29:00,72.7,32.8,25.14,NE,41,3.0,-999.0,23,-99.99,,,-99.99,dwt +perl,2013-04-27 19:29:00,
2013-04-27 12:34:00,72.9,35.0,25.14,NE,40,0.0,-999.0,25,-99.99,,,-99.99,dwt +perl,2013-04-27 19:34:00,
2013-04-27 12:39:00,73.1,33.1,25.13,NE,43,2.0,-999.0,23,-99.99,,,-99.99,dwt +perl,2013-04-27 19:39:00,
2013-04-27 12:44:00,72.5,32.6,25.13,NE,48,1.0,-999.0,23,-99.99,,,-99.99,dwt +perl,2013-04-27 19:44:00,
2013-04-27 12:49:00,72.0,29.9,25.13,NE,35,1.0,-999.0,21,-99.99,,,-99.99,dwt +perl,2013-04-27 19:49:00,
2013-04-27 12:54:00,71.9,33.1,25.13,NE,41,4.0,-999.0,24,-99.99,,,-99.99,dwt +perl,2013-04-27 19:54:00,
2013-04-27 12:59:00,71.9,33.1,25.13,NE,56,1.0,-999.0,24,-99.99,,,-99.99,dwt +perl,2013-04-27 19:59:00,
2013-04-27 13:04:00,72.1,34.3,25.12,NE,50,5.0,-999.0,25,-99.99,,,-99.99,dwt +perl,2013-04-27 20:04:00,
2013-04-27 13:09:00,72.1,33.3,25.12,NE,42,4.0,-999.0,24,-99.99,,,-99.99,dwt +perl,2013-04-27 20:09:00,
2013-04-27 13:14:00,71.8,34.1,25.12,NE,44,7.0,-999.0,25,-99.99,,,-99.99,dwt +perl,2013-04-27 20:14:00,
2013-04-27 13:19:00,71.4,34.7,25.12,NE,43,2.0,-999.0,26,-99.99,,,-99.99,dwt +perl,2013-04-27 20:19:00,
2013-04-27 13:24:00,71.1,33.5,25.12,NE,43,5.0,-999.0,25,-99.99,,,-99.99,dwt +perl,2013-04-27 20:24:00,
2013-04-27 13:29:00,70.8,34.2,25.12,NE,45,2.0,-999.0,26,-99.99,,,-99.99,dwt +perl,2013-04-27 20:29:00,
2013-04-27 13:34:00,71.0,36.2,25.12,NE,56,3.0,-999.0,28,-99.99,,,-99.99,dwt +perl,2013-04-27 20:34:00,
2013-04-27 13:39:00,71.5,35.8,25.12,NE,44,5.0,-999.0,27,-99.99,,,-99.99,dwt +perl,2013-04-27 20:39:00,
2013-04-27 13:44:00,71.9,36.1,25.11,NE,38,4.0,-999.0,27,-99.99,,,-99.99,dwt +perl,2013-04-27 20:44:00,
2013-04-27 13:54:00,72.2,33.4,25.11,NNE,18,1.0,-999.0,24,-99.99,,,-99.99,dwt +perl,2013-04-27 20:54:00,
2013-04-27 13:59:00,72.2,35.4,25.11,NE,49,5.0,-999.0,26,-99.99,,,-99.99,dwt +perl,2013-04-27 20:59:00,
2013-04-27 14:04:00,72.2,35.4,25.11,NE,54,4.0,-999.0,26,-99.99,,,-99.99,dwt +perl,2013-04-27 21:04:00,
2013-04-27 14:09:00,72.5,35.7,25.11,NE,52,5.0,-999.0,26,-99.99,,,-99.99,dwt +perl,2013-04-27 21:09:00,
2013-04-27 14:14:00,72.2,35.4,25.11,NE,45,3.0,-999.0,26,-99.99,,,-99.99,dwt +perl,2013-04-27 21:14:00,
2013-04-27 14:19:00,72.2,35.4,25.10,NE,37,0.0,-999.0,26,-99.99,,,-99.99,dwt +perl,2013-04-27 21:19:00,
2013-04-27 14:24:00,71.9,35.1,25.10,NNE,32,5.0,-999.0,26,-99.99,,,-99.99,dwt +perl,2013-04-27 21:24:00,
2013-04-27 14:29:00,71.0,36.2,25.10,NE,43,6.0,-999.0,28,-99.99,,,-99.99,dwt +perl,2013-04-27 21:29:00,
2013-04-27 14:34:00,70.3,35.6,25.10,NNE,29,3.0,-999.0,28,-99.99,,,-99.99,dwt +perl,2013-04-27 21:34:00,
2013-04-27 14:39:00,70.2,37.3,25.10,NE,36,5.0,-999.0,30,-99.99,,,-99.99,dwt +perl,2013-04-27 21:39:00,
2013-04-27 14:44:00,71.3,34.6,25.10,NNE,24,9.0,-999.0,26,-99.99,,,-99.99,dwt +perl,2013-04-27 21:44:00,
2013-04-27 14:49:00,69.7,33.3,25.10,NNE,33,1.0,-999.0,26,-99.99,,,-99.99,dwt +perl,2013-04-27 21:49:00,
2013-04-27 14:54:00,70.2,34.6,25.10,NNE,30,5.0,-999.0,27,-99.99,,,-99.99,dwt +perl,2013-04-27 21:54:00,
2013-04-27 14:59:00,70.0,34.5,25.10,NNE,28,4.0,-999.0,27,-99.99,,,-99.99,dwt +perl,2013-04-27 21:59:00,
2013-04-27 15:04:00,70.0,34.5,25.09,NNE,20,4.0,-999.0,27,-99.99,,,-99.99,dwt +perl,2013-04-27 22:04:00,
2013-04-27 15:09:00,70.6,33.1,25.09,NNE,33,6.0,-999.0,25,-99.99,,,-99.99,dwt +perl,2013-04-27 22:09:00,
2013-04-27 15:14:00,70.4,32.9,25.09,NNE,30,5.0,-999.0,25,-99.99,,,-99.99,dwt +perl,2013-04-27 22:14:00,
2013-04-27 15:19:00,69.5,35.0,25.09,NNE,29,4.0,-999.0,28,-99.99,,,-99.99,dwt +perl,2013-04-27 22:19:00,
2013-04-27 15:24:00,69.3,34.8,25.09,NNW,346,0.0,-999.0,28,-99.99,,,-99.99,dwt +perl,2013-04-27 22:24:00,
2013-04-27 15:29:00,69.6,35.9,25.09,NE,34,5.0,-999.0,29,-99.99,,,-99.99,dwt +perl,2013-04-27 22:29:00,
2013-04-27 15:34:00,69.7,35.1,25.08,NE,45,5.0,-999.0,28,-99.99,,,-99.99,dwt +perl,2013-04-27 22:34:00,
2013-04-27 15:39:00,70.0,36.3,25.08,NE,35,5.0,-999.0,29,-99.99,,,-99.99,dwt +perl,2013-04-27 22:39:00,
2013-04-27 15:44:00,69.6,36.8,25.08,NNE,31,4.0,-999.0,30,-99.99,,,-99.99,dwt +perl,2013-04-27 22:44:00,
2013-04-27 15:49:00,69.5,35.0,25.08,North,4,2.0,-999.0,28,-99.99,,,-99.99,dwt +perl,2013-04-27 22:49:00,
2013-04-27 15:54:00,69.5,36.7,25.08,NE,35,0.0,-999.0,30,-99.99,,,-99.99,dwt +perl,2013-04-27 22:54:00,
2013-04-27 15:59:00,69.1,35.5,25.08,NNW,347,3.0,-999.0,29,-99.99,,,-99.99,dwt +perl,2013-04-27 22:59:00,
2013-04-27 16:04:00,68.3,34.8,25.08,NNE,29,3.0,-999.0,29,-99.99,,,-99.99,dwt +perl,2013-04-27 23:04:00,
2013-04-27 16:09:00,68.0,34.5,25.08,NNE,26,6.0,-999.0,29,-99.99,,,-99.99,dwt +perl,2013-04-27 23:09:00,
2013-04-27 16:14:00,67.8,35.2,25.08,North,354,5.0,-999.0,30,-99.99,,,-99.99,dwt +perl,2013-04-27 23:14:00,
2013-04-27 16:19:00,67.9,34.5,25.07,NNE,32,4.0,-999.0,29,-99.99,,,-99.99,dwt +perl,2013-04-27 23:19:00,
2013-04-27 16:24:00,67.7,34.3,25.07,NNE,21,6.0,-999.0,29,-99.99,,,-99.99,dwt +perl,2013-04-27 23:24:00,
2013-04-27 16:29:00,67.3,33.1,25.07,NW,310,7.0,-999.0,28,-99.99,,,-99.99,dwt +perl,2013-04-27 23:29:00,
2013-04-27 16:34:00,66.9,32.7,25.07,NW,320,10.0,-999.0,28,-99.99,,,-99.99,dwt +perl,2013-04-27 23:34:00,
2013-04-27 16:39:00,66.7,32.6,25.07,NW,326,6.0,-999.0,28,-99.99,,,-99.99,dwt +perl,2013-04-27 23:39:00,
2013-04-27 16:44:00,66.5,33.3,25.07,NW,312,8.0,-999.0,29,-99.99,,,-99.99,dwt +perl,2013-04-27 23:44:00,
2013-04-27 16:49:00,66.4,33.2,25.07,NW,316,10.0,-999.0,29,-99.99,,,-99.99,dwt +perl,2013-04-27 23:49:00,
2013-04-27 16:54:00,66.5,32.4,25.07,NNE,20,5.0,-999.0,28,-99.99,,,-99.99,dwt +perl,2013-04-27 23:54:00,
2013-04-27 16:59:00,66.7,33.4,25.07,North,354,5.0,-999.0,29,-99.99,,,-99.99,dwt +perl,2013-04-27 23:59:00,
2013-04-27 17:04:00,66.8,31.7,25.07,NNE,30,4.0,-999.0,27,-99.99,,,-99.99,dwt +perl,2013-04-28 00:04:00,
2013-04-27 17:09:00,66.6,29.7,25.06,WNW,289,8.0,-999.0,25,-99.99,,,-99.99,dwt +perl,2013-04-28 00:09:00,
2013-04-27 17:14:00,66.6,31.6,25.06,WNW,301,8.0,-999.0,27,-99.99,,,-99.99,dwt +perl,2013-04-28 00:14:00,
2013-04-27 17:19:00,66.6,32.5,25.06,NW,313,3.0,-999.0,28,-99.99,,,-99.99,dwt +perl,2013-04-28 00:19:00,
2013-04-27 17:24:00,67.6,32.4,25.06,NW,316,6.0,-999.0,27,-99.99,,,-99.99,dwt +perl,2013-04-28 00:24:00,
2013-04-27 17:29:00,67.2,33.0,25.06,NW,316,2.0,-999.0,28,-99.99,,,-99.99,dwt +perl,2013-04-28 00:29:00,
2013-04-27 17:34:00,67.6,33.3,25.06,NW,312,9.0,-999.0,28,-99.99,,,-99.99,dwt +perl,2013-04-28 00:34:00,
2013-04-27 17:39:00,66.6,28.7,25.06,NW,308,10.0,-999.0,24,-99.99,,,-99.99,dwt +perl,2013-04-28 00:39:00,
2013-04-27 17:44:00,65.8,29.0,25.06,NW,324,6.0,-999.0,25,-99.99,,,-99.99,dwt +perl,2013-04-28 00:44:00,
2013-04-27 17:49:00,66.1,32.0,25.06,NW,310,7.0,-999.0,28,-99.99,,,-99.99,dwt +perl,2013-04-28 00:49:00,
2013-04-27 17:54:00,65.9,27.1,25.06,NNW,327,7.0,-999.0,23,-99.99,,,-99.99,dwt +perl,2013-04-28 00:54:00,
2013-04-27 17:59:00,66.2,32.1,25.06,West,273,9.0,-999.0,28,-99.99,,,-99.99,dwt +perl,2013-04-28 00:59:00,
2013-04-27 18:04:00,66.4,26.4,25.06,NW,322,5.0,-999.0,22,-99.99,,,-99.99,dwt +perl,2013-04-28 01:04:00,
2013-04-27 18:09:00,66.1,29.2,25.06,WNW,287,7.0,-999.0,25,-99.99,,,-99.99,dwt +perl,2013-04-28 01:09:00,
2013-04-27 18:14:00,65.9,29.1,25.06,WNW,299,4.0,-999.0,25,-99.99,,,-99.99,dwt +perl,2013-04-28 01:14:00,
2013-04-27 18:19:00,66.1,31.1,25.06,WSW,245,4.0,-999.0,27,-99.99,,,-99.99,dwt +perl,2013-04-28 01:19:00,
2013-04-27 18:24:00,66.1,29.2,25.06,NW,314,5.0,-999.0,25,-99.99,,,-99.99,dwt +perl,2013-04-28 01:24:00,
2013-04-27 18:29:00,66.0,29.2,25.06,WSW,239,10.0,-999.0,25,-99.99,,,-99.99,dwt +perl,2013-04-28 01:29:00,
2013-04-27 18:34:00,65.5,29.7,25.06,WSW,238,6.0,-999.0,26,-99.99,,,-99.99,dwt +perl,2013-04-28 01:34:00,
2013-04-27 18:39:00,65.4,29.6,25.06,WSW,253,6.0,-999.0,26,-99.99,,,-99.99,dwt +perl,2013-04-28 01:39:00,
2013-04-27 18:44:00,65.2,28.5,25.06,NW,314,8.0,-999.0,25,-99.99,,,-99.99,dwt +perl,2013-04-28 01:44:00,
2013-04-27 18:49:00,65.1,27.4,25.05,WNW,286,4.0,-999.0,24,-99.99,,,-99.99,dwt +perl,2013-04-28 01:49:00,
2013-04-27 18:54:00,64.8,29.1,25.05,WNW,297,6.0,-999.0,26,-99.99,,,-99.99,dwt +perl,2013-04-28 01:54:00,
2013-04-27 18:59:00,64.0,24.4,25.05,WNW,286,7.0,-999.0,22,-99.99,,,-99.99,dwt +perl,2013-04-28 01:59:00,
2013-04-27 19:04:00,63.7,24.1,25.05,NW,305,9.0,-999.0,22,-99.99,,,-99.99,dwt +perl,2013-04-28 02:04:00,
2013-04-27 19:09:00,63.7,23.0,25.05,WNW,294,10.0,-999.0,21,-99.99,,,-99.99,dwt +perl,2013-04-28 02:09:00,
2013-04-27 19:14:00,63.6,25.1,25.05,WNW,302,7.0,-999.0,23,-99.99,,,-99.99,dwt +perl,2013-04-28 02:14:00,
2013-04-27 19:19:00,63.5,25.0,25.05,WNW,299,10.0,-999.0,23,-99.99,,,-99.99,dwt +perl,2013-04-28 02:19:00,
2013-04-27 19:24:00,63.3,23.8,25.05,WNW,299,8.0,-999.0,22,-99.99,,,-99.99,dwt +perl,2013-04-28 02:24:00,
2013-04-27 19:29:00,63.1,24.7,25.05,NW,316,7.0,-999.0,23,-99.99,,,-99.99,dwt +perl,2013-04-28 02:29:00,
2013-04-27 19:34:00,62.8,26.5,25.05,WNW,299,9.0,-999.0,25,-99.99,,,-99.99,dwt +perl,2013-04-28 02:34:00,
2013-04-27 19:39:00,62.5,28.1,25.05,WNW,298,7.0,-999.0,27,-99.99,,,-99.99,dwt +perl,2013-04-28 02:39:00,
2013-04-27 19:44:00,62.2,28.7,25.05,NW,305,8.0,-999.0,28,-99.99,,,-99.99,dwt +perl,2013-04-28 02:44:00,
2013-04-27 19:49:00,62.0,29.4,25.05,NW,307,8.0,-999.0,29,-99.99,,,-99.99,dwt +perl,2013-04-28 02:49:00,
2013-04-27 19:54:00,61.9,31.7,25.05,WNW,301,8.0,-999.0,32,-99.99,,,-99.99,dwt +perl,2013-04-28 02:54:00,
2013-04-27 19:59:00,61.8,30.8,25.05,NW,310,7.0,-999.0,31,-99.99,,,-99.99,dwt +perl,2013-04-28 02:59:00,
2013-04-27 20:04:00,61.8,29.2,25.05,NW,312,10.0,-999.0,29,-99.99,,,-99.99,dwt +perl,2013-04-28 03:04:00,
2013-04-27 20:09:00,61.9,30.1,25.05,NW,318,13.0,-999.0,30,-99.99,,,-99.99,dwt +perl,2013-04-28 03:09:00,
2013-04-27 20:14:00,61.9,30.9,25.04,NW,324,13.0,-999.0,31,-99.99,,,-99.99,dwt +perl,2013-04-28 03:14:00,
2013-04-27 20:19:00,62.0,32.6,25.05,NW,320,13.0,-999.0,33,-99.99,,,-99.99,dwt +perl,2013-04-28 03:19:00,
2013-04-27 20:24:00,61.9,33.2,25.05,NW,318,13.0,-999.0,34,-99.99,,,-99.99,dwt +perl,2013-04-28 03:24:00,
2013-04-27 20:29:00,61.9,31.7,25.05,NW,322,9.0,-999.0,32,-99.99,,,-99.99,dwt +perl,2013-04-28 03:29:00,
2013-04-27 20:34:00,62.0,30.2,25.04,NW,320,10.0,-999.0,30,-99.99,,,-99.99,dwt +perl,2013-04-28 03:34:00,
2013-04-27 20:39:00,62.2,26.9,25.04,NNW,330,9.0,-999.0,26,-99.99,,,-99.99,dwt +perl,2013-04-28 03:39:00,
2013-04-27 20:44:00,62.5,23.1,25.04,NNW,330,10.0,-999.0,22,-99.99,,,-99.99,dwt +perl,2013-04-28 03:44:00,
2013-04-27 20:49:00,62.6,23.2,25.04,NW,318,10.0,-999.0,22,-99.99,,,-99.99,dwt +perl,2013-04-28 03:49:00,
2013-04-27 20:54:00,62.9,21.2,25.05,NW,326,11.0,-999.0,20,-99.99,,,-99.99,dwt +perl,2013-04-28 03:54:00,
2013-04-27 20:59:00,63.0,20.1,25.05,NNW,328,9.0,-999.0,19,-99.99,,,-99.99,dwt +perl,2013-04-28 03:59:00,
2013-04-27 21:04:00,63.2,19.0,25.05,NW,325,11.0,-999.0,18,-99.99,,,-99.99,dwt +perl,2013-04-28 04:04:00,
2013-04-27 21:09:00,63.2,21.5,25.05,NW,320,8.0,-999.0,20,-99.99,,,-99.99,dwt +perl,2013-04-28 04:09:00,
2013-04-27 21:14:00,63.2,22.6,25.05,WNW,301,6.0,-999.0,21,-99.99,,,-99.99,dwt +perl,2013-04-28 04:14:00,
2013-04-27 21:19:00,63.0,22.5,25.05,NW,314,6.0,-999.0,21,-99.99,,,-99.99,dwt +perl,2013-04-28 04:19:00,
2013-04-27 21:24:00,63.1,23.6,25.05,NW,319,6.0,-999.0,22,-99.99,,,-99.99,dwt +perl,2013-04-28 04:24:00,
2013-04-27 21:29:00,63.5,20.5,25.05,NW,314,6.0,-999.0,19,-99.99,,,-99.99,dwt +perl,2013-04-28 04:29:00,
2013-04-27 21:34:00,63.9,18.2,25.05,NW,316,5.0,-999.0,17,-99.99,,,-99.99,dwt +perl,2013-04-28 04:34:00,
2013-04-27 21:39:00,64.0,19.6,25.05,NW,317,6.0,-999.0,18,-99.99,,,-99.99,dwt +perl,2013-04-28 04:39:00,
2013-04-27 21:44:00,64.2,18.5,25.05,NW,314,6.0,-999.0,17,-99.99,,,-99.99,dwt +perl,2013-04-28 04:44:00,
2013-04-27 21:49:00,64.1,18.4,25.05,NW,305,4.0,-999.0,17,-99.99,,,-99.99,dwt +perl,2013-04-28 04:49:00,
2013-04-27 21:54:00,63.8,18.2,25.05,WNW,299,6.0,-999.0,17,-99.99,,,-99.99,dwt +perl,2013-04-28 04:54:00,
2013-04-27 21:59:00,63.3,19.1,25.05,WNW,291,7.0,-999.0,18,-99.99,,,-99.99,dwt +perl,2013-04-28 04:59:00,
2013-04-27 22:04:00,62.8,21.1,25.05,WNW,289,6.0,-999.0,20,-99.99,,,-99.99,dwt +perl,2013-04-28 05:04:00,
2013-04-27 22:09:00,62.4,22.0,25.05,WNW,294,8.0,-999.0,21,-99.99,,,-99.99,dwt +perl,2013-04-28 05:09:00,
2013-04-27 22:14:00,62.1,21.7,25.05,WNW,288,9.0,-999.0,21,-99.99,,,-99.99,dwt +perl,2013-04-28 05:14:00,
2013-04-27 22:19:00,62.0,21.6,25.05,WNW,282,7.0,-999.0,21,-99.99,,,-99.99,dwt +perl,2013-04-28 05:19:00,
2013-04-27 22:24:00,61.7,21.4,25.05,West,268,7.0,-999.0,21,-99.99,,,-99.99,dwt +perl,2013-04-28 05:24:00,
2013-04-27 22:29:00,61.7,22.5,25.05,West,278,6.0,-999.0,22,-99.99,,,-99.99,dwt +perl,2013-04-28 05:29:00,
2013-04-27 22:34:00,61.6,22.4,25.05,West,278,6.0,-999.0,22,-99.99,,,-99.99,dwt +perl,2013-04-28 05:34:00,
2013-04-27 22:39:00,61.3,24.2,25.05,West,278,8.0,-999.0,24,-99.99,,,-99.99,dwt +perl,2013-04-28 05:39:00,
2013-04-27 22:44:00,61.1,23.0,25.04,WNW,293,7.0,-999.0,23,-99.99,,,-99.99,dwt +perl,2013-04-28 05:44:00,
2013-04-27 22:49:00,61.4,21.1,25.04,WNW,292,7.0,-999.0,21,-99.99,,,-99.99,dwt +perl,2013-04-28 05:49:00,
2013-04-27 22:54:00,61.4,21.1,25.04,West,279,7.0,-999.0,21,-99.99,,,-99.99,dwt +perl,2013-04-28 05:54:00,
2013-04-27 22:59:00,61.5,21.2,25.04,WNW,289,7.0,-999.0,21,-99.99,,,-99.99,dwt +perl,2013-04-28 05:59:00,
2013-04-27 23:04:00,62.0,20.5,25.04,WNW,294,7.0,-999.0,20,-99.99,,,-99.99,dwt +perl,2013-04-28 06:04:00,
2013-04-27 23:09:00,62.3,20.7,25.04,WNW,298,6.0,-999.0,20,-99.99,,,-99.99,dwt +perl,2013-04-28 06:09:00,
2013-04-27 23:14:00,62.4,18.4,25.04,WNW,303,4.0,-999.0,18,-99.99,,,-99.99,dwt +perl,2013-04-28 06:14:00,
2013-04-27 23:19:00,62.6,18.5,25.03,WNW,299,5.0,-999.0,18,-99.99,,,-99.99,dwt +perl,2013-04-28 06:19:00,
2013-04-27 23:24:00,63.0,18.8,25.03,WNW,299,6.0,-999.0,18,-99.99,,,-99.99,dwt +perl,2013-04-28 06:24:00,
2013-04-27 23:29:00,63.2,17.7,25.03,NW,312,5.0,-999.0,17,-99.99,,,-99.99,dwt +perl,2013-04-28 06:29:00,
2013-04-27 23:34:00,63.4,17.8,25.03,NW,318,7.0,-999.0,17,-99.99,,,-99.99,dwt +perl,2013-04-28 06:34:00,
2013-04-27 23:39:00,63.4,17.8,25.03,WNW,293,5.0,-999.0,17,-99.99,,,-99.99,dwt +perl,2013-04-28 06:39:00,
2013-04-27 23:44:00,63.4,17.8,25.03,WNW,295,4.0,-999.0,17,-99.99,,,-99.99,dwt +perl,2013-04-28 06:44:00,
2013-04-27 23:49:00,63.1,16.2,25.03,WNW,297,5.0,-999.0,16,-99.99,,,-99.99,dwt +perl,2013-04-28 06:49:00,
2013-04-27 23:54:00,63.1,16.2,25.03,NW,308,4.0,-999.0,16,-99.99,,,-99.99,dwt +perl,2013-04-28 06:54:00,
2013-04-27 23:59:00,63.1,16.2,25.03,WNW,301,5.0,-999.0,16,-99.99,,,-99.99,dwt +perl,2013-04-28 06:59:00,